Storm Lake, IA

3:46 AM CDT on September 30, 2016 (GMT -0500)
Storm Lake Municipal

Weather History for KSLB - December, 2012

Change the Weather History Date:

Saturday, December 8, 2012

  Actual Average Record
Temperature  
Mean Temperature 28 °F -  
Max Temperature 33 °F 35 °F 51 °F (1999)
Min Temperature 23 °F 20 °F -99 °F (1999)
Degree Days  
Heating Degree Days 37    
Moisture  
Dew Point 27 °F    
Average Humidity 94    
Maximum Humidity 100    
Minimum Humidity 75    
Precipitation  
Precipitation 0.00 in - - ()
Sea Level Pressure  
Sea Level Pressure 29.93 in    
Wind  
Wind Speed 10 mph (ESE)    
Max Wind Speed 21 mph    
Max Gust Speed 24 mph    
Visibility 5 miles    
Events Fog , Snow    
Averages and records for this station are not official NWS values.
T = Trace of Precipitation, MM = Missing Value Source: NWS Daily Summary

Daily Weather History Graph

Daily Weather History Graph

Search for Another Location

Airport or City:

Trip Planner

Search our weather history database for the weather conditions in past years. The results will help you decide how hot, cold, wet, or windy it might be!

Date:

Astronomy

Dec. 08, 2012 Rise Set
Actual Time 7:38 AM CST 4:47 PM CST
Civil Twilight 7:06 AM CST 5:19 PM CST
Nautical Twilight 6:31 AM CST 5:54 PM CST
Astronomical Twilight 5:57 AM CST 6:28 PM CST
Moon 1:58 AM CST (12/8) 1:23 PM CST (12/8)
Length of Visible Light 10h 12m
Length of Day
9h 08m
Waning Crescent, 28% of the Moon is Illuminated
Dec 8
Waning Crescent
Dec 13
New
Dec 19
First Quarter
Dec 28
Full
Jan 4
Last Quarter

Hourly Weather History & Observations

Time (CST) Temp. Windchill Dew Point Humidity Pressure Visibility Wind Dir Wind Speed Gust Speed Precip Events Conditions
12:15 AM 28.4 °F 18.0 °F 26.6 °F 93% 29.97 in 7.0 mi NE 12.7 mph - N/A   Overcast
12:35 AM 28.4 °F 19.1 °F 26.6 °F 93% 29.97 in 7.0 mi NE 10.4 mph - N/A   Overcast
12:55 AM 28.4 °F 18.0 °F 26.6 °F 93% 29.96 in 6.0 mi NE 12.7 mph - N/A   Overcast
1:15 AM 28.4 °F 18.5 °F 26.6 °F 93% 29.96 in 7.0 mi NE 11.5 mph - N/A   Overcast
1:35 AM 28.4 °F 20.4 °F 26.6 °F 93% 29.97 in 7.0 mi ENE 8.1 mph - N/A   Overcast
1:55 AM 28.4 °F 21.2 °F 26.6 °F 93% 29.97 in 7.0 mi NE 6.9 mph - N/A   Overcast
2:15 AM 28.4 °F 21.2 °F 26.6 °F 93% 29.98 in 7.0 mi NE 6.9 mph - N/A   Overcast
2:35 AM 28.4 °F 20.4 °F 26.6 °F 93% 29.97 in 6.0 mi ENE 8.1 mph - N/A   Overcast
2:55 AM 28.4 °F 19.7 °F 26.6 °F 93% 29.96 in 6.0 mi ENE 9.2 mph - N/A   Overcast
3:15 AM 26.6 °F 20.0 °F 24.8 °F 93% 29.97 in 6.0 mi NE 5.8 mph - N/A   Overcast
3:35 AM 24.8 °F 16.1 °F 24.8 °F 100% 29.97 in 4.0 mi NE 8.1 mph - N/A   Mostly Cloudy
3:55 AM 24.8 °F 16.1 °F 23.0 °F 93% 29.96 in 3.0 mi NE 8.1 mph - N/A   Scattered Clouds
4:15 AM 24.8 °F 16.9 °F 23.0 °F 93% 29.96 in 2.0 mi NE 6.9 mph - N/A   Mostly Cloudy
4:35 AM 23.0 °F 13.9 °F 23.0 °F 100% 29.96 in 1.2 mi NE 8.1 mph - N/A   Overcast
4:55 AM 24.8 °F 17.9 °F 24.8 °F 100% 29.96 in 0.2 mi NNE 5.8 mph - N/A Fog Light Freezing Fog
5:15 AM 24.8 °F 20.5 °F 23.0 °F 93% 29.97 in 0.2 mi North 3.5 mph - N/A Fog Light Freezing Fog
5:35 AM 23.0 °F 17.0 °F 23.0 °F 100% 29.98 in 0.2 mi North 4.6 mph - N/A Fog Light Freezing Fog
5:55 AM 23.0 °F 17.0 °F 23.0 °F 100% 29.97 in 0.2 mi NNE 4.6 mph - N/A Fog Light Freezing Fog
6:15 AM 23.0 °F 15.8 °F 23.0 °F 100% 29.98 in 0.2 mi East 5.8 mph - N/A Fog Light Freezing Fog
6:35 AM 24.8 °F 17.9 °F 24.8 °F 100% 29.98 in 0.2 mi ENE 5.8 mph - N/A   Overcast
6:55 AM 24.8 °F 16.9 °F 24.8 °F 100% 29.98 in 0.2 mi East 6.9 mph - N/A Fog Light Freezing Fog
7:15 AM 24.8 °F 15.3 °F 24.8 °F 100% 29.97 in 0.2 mi ENE 9.2 mph - N/A Fog Light Freezing Fog
7:35 AM 24.8 °F 14.6 °F 24.8 °F 100% 29.97 in 0.2 mi East 10.4 mph - N/A   Overcast
7:55 AM 24.8 °F 14.6 °F 24.8 °F 100% 29.97 in 0.2 mi East 10.4 mph - N/A Fog Light Freezing Fog
8:15 AM 24.8 °F - 24.8 °F 100% 29.98 in 0.2 mi North - - N/A Fog Light Freezing Fog
8:35 AM 24.8 °F 11.9 °F 24.8 °F 100% 29.99 in 0.2 mi East 16.1 mph - N/A Fog Light Freezing Fog
8:55 AM 24.8 °F 14.6 °F 24.8 °F 100% 29.99 in 0.2 mi East 10.4 mph - N/A Fog Light Freezing Fog
9:15 AM 24.8 °F - 24.8 °F 100% 30.00 in 0.2 mi North - - N/A Fog Light Freezing Fog
9:35 AM 24.8 °F - 24.8 °F 100% 30.00 in 0.2 mi North - - N/A Fog Light Freezing Fog
9:55 AM 26.6 °F - 24.8 °F 93% 29.99 in 0.2 mi North - - N/A Fog Light Freezing Fog
10:15 AM 26.6 °F - 26.6 °F 100% 29.99 in 0.2 mi North - - N/A Fog Light Freezing Fog
10:35 AM 26.6 °F - 26.6 °F 100% 29.99 in 0.8 mi North - - N/A   Overcast
10:55 AM 26.6 °F - 26.6 °F 100% 29.98 in 1.2 mi North - - N/A   Overcast
11:15 AM 26.6 °F - 26.6 °F 100% 29.98 in 3.0 mi North - - N/A   Overcast
11:35 AM 26.6 °F 16.8 °F 26.6 °F 100% 29.97 in 4.0 mi ESE 10.4 mph - N/A   Overcast
11:55 AM 28.4 °F 17.5 °F 26.6 °F 93% 29.97 in 4.0 mi ESE 13.8 mph 20.7 mph N/A   Overcast
12:15 PM 28.4 °F 17.5 °F 28.4 °F 100% 29.95 in 5.0 mi ESE 13.8 mph 19.6 mph N/A   Overcast
12:35 PM 28.4 °F 20.4 °F 28.4 °F 100% 29.95 in 6.0 mi SE 8.1 mph - N/A   Mostly Cloudy
12:55 PM 28.4 °F 20.4 °F 28.4 °F 100% 29.94 in 6.0 mi SE 8.1 mph - N/A   Mostly Cloudy
1:15 PM 30.2 °F 21.9 °F 30.2 °F 100% 29.93 in 7.0 mi SE 9.2 mph - N/A   Mostly Cloudy
1:35 PM 30.2 °F 20.8 °F 30.2 °F 100% 29.92 in 9.0 mi SE 11.5 mph - N/A   Partly Cloudy
1:55 PM 32.0 °F 23.6 °F 30.2 °F 93% 29.91 in 10.0 mi SE 10.4 mph - N/A   Clear
2:15 PM 32.0 °F 24.2 °F 28.4 °F 87% 29.90 in 10.0 mi SE 9.2 mph - N/A   Clear
2:35 PM 32.0 °F 23.0 °F 26.6 °F 80% 29.90 in 10.0 mi SE 11.5 mph - N/A   Clear
2:55 PM 32.0 °F 23.0 °F 28.4 °F 87% 29.89 in 10.0 mi SE 11.5 mph - N/A   Clear
3:15 PM 32.0 °F 23.0 °F 26.6 °F 80% 29.89 in 10.0 mi SE 11.5 mph - N/A   Clear
3:35 PM 32.0 °F 23.0 °F 26.6 °F 80% 29.89 in 10.0 mi SE 11.5 mph - N/A   Clear
3:55 PM 33.8 °F 25.8 °F 26.6 °F 75% 29.89 in 10.0 mi SE 10.4 mph - N/A   Partly Cloudy
4:15 PM 32.0 °F 23.6 °F 26.6 °F 80% 29.88 in 10.0 mi SE 10.4 mph - N/A   Scattered Clouds
4:35 PM 32.0 °F 24.2 °F 26.6 °F 80% 29.88 in 10.0 mi SE 9.2 mph 15.0 mph N/A   Scattered Clouds
5:15 PM 32.0 °F 24.8 °F 26.6 °F 80% 29.90 in 10.0 mi SE 8.1 mph - N/A   Overcast
5:35 PM 32.0 °F 23.6 °F 26.6 °F 80% 29.90 in 10.0 mi SE 10.4 mph - N/A   Overcast
5:55 PM 32.0 °F 23.6 °F 26.6 °F 80% 29.90 in 10.0 mi SE 10.4 mph - N/A   Overcast
6:15 PM 32.0 °F 23.6 °F 26.6 °F 80% 29.89 in 10.0 mi SE 10.4 mph - N/A   Overcast
6:35 PM 32.0 °F 22.1 °F 28.4 °F 87% 29.88 in 10.0 mi ESE 13.8 mph - N/A   Mostly Cloudy
6:55 PM 32.0 °F 21.2 °F 28.4 °F 87% 29.88 in 10.0 mi ESE 16.1 mph - N/A   Overcast
7:15 PM 32.0 °F 22.1 °F 28.4 °F 87% 29.89 in 8.0 mi SE 13.8 mph - N/A   Overcast
7:55 PM 32.0 °F 21.6 °F 30.2 °F 93% 29.90 in 7.0 mi SE 15.0 mph - N/A   Overcast
8:15 PM 32.0 °F 22.1 °F 30.2 °F 93% 29.88 in 1.8 mi SE 13.8 mph - N/A Snow Light Snow
8:35 PM 32.0 °F 22.1 °F 32.0 °F 100% 29.87 in 1.8 mi SE 13.8 mph - N/A Snow Light Snow
8:55 PM 32.0 °F 19.8 °F 30.2 °F 93% 29.83 in 2.0 mi SE 20.7 mph - N/A Snow Light Snow
9:15 PM 32.0 °F 20.5 °F 32.0 °F 100% 29.87 in 3.0 mi SSE 18.4 mph - N/A Snow Light Snow
9:35 PM 32.0 °F 20.5 °F 32.0 °F 100% 29.88 in 4.0 mi SSE 18.4 mph - N/A   Overcast
9:55 PM 32.0 °F 20.5 °F 32.0 °F 100% 29.87 in 3.0 mi SSE 18.4 mph 24.2 mph N/A   Overcast
10:15 PM 32.0 °F 20.8 °F 32.0 °F 100% 29.89 in 3.0 mi SSE 17.3 mph - N/A   Overcast
10:35 PM 32.0 °F 20.8 °F 32.0 °F 100% 29.88 in 2.5 mi SSE 17.3 mph - N/A   Overcast
10:55 PM 32.0 °F 21.2 °F 32.0 °F 100% 29.87 in 3.0 mi SSE 16.1 mph - N/A   Overcast
11:15 PM 32.0 °F 21.6 °F 32.0 °F 100% 29.87 in 2.5 mi SSE 15.0 mph - N/A   Overcast
11:35 PM 32.0 °F 21.6 °F 32.0 °F 100% 29.87 in 3.0 mi SE 15.0 mph - N/A   Overcast
11:55 PM 32.0 °F 22.1 °F 32.0 °F 100% 29.87 in 3.0 mi SE 13.8 mph - N/A   Overcast